Location: Bathsheba
(13.2167°N, 59.5167°W)
Time: 23:57:29
(UTC+00:00)

Cosmos 2151 Rocket - Pass Details

Date: 18 September 2020
Orbit: 618 x 642 km, 82.5° (Epoch: 20 October)

Event Time Altitude Azimuth Distance (km) Brightness Sun altitude
Rises 23:26:52 0° 186° (S) 2,886 7.0 -22.7°
Reaches altitude 10° 23:29:05 10° 187° (S) 1,983 6.1 -23.3°
Maximum altitude 23:33:28 80° 274° (W) 636 3.6 -24.3°
Drops below altitude 10° 23:37:54 10° 1° (N) 1,998 6.2 -25.4°
Sets 23:40:08 0° 3° (N) 2,909 7.1 -25.9°
